Location: Lake Hudson State Recreational Area
(41.8372°N, 84.2445°W)
Time: 01:44:59
(UTC-04:00)

OTV 5 (USA 277) - Visible Passes

Search period start: 20 June 2018 00:00
Search period end: 30 June 2018 00:00
Orbit: 313 x 320 km, 54.5° (Epoch: 18 June)

Date Brightness Start Highest point End Pass type
(mag) Time Alt. Az. Time Alt. Az. Time Alt. Az.
20 Jun ? 02:24:34 10° N 02:25:57 13° NNE 02:27:20 10° NE visible
20 Jun ? 03:57:54 10° NW 04:00:37 86° SW 04:01:29 39° SE visible
20 Jun ? 21:52:39 10° W 21:54:50 22° NNW 21:57:02 10° NNE visible
21 Jun ? 02:38:24 10° NNW 02:40:30 23° NNE 02:40:30 23° NNE visible
21 Jun ? 22:08:16 10° NW 22:09:34 12° NNW 22:10:50 10° N visible
22 Jun ? 01:19:55 10° N 01:20:23 10° NNE 01:20:52 10° NNE visible
22 Jun ? 02:52:33 10° NW 02:52:44 11° NW 02:52:44 11° NW visible
23 Jun ? 01:33:17 10° NNW 01:34:46 16° NNE 01:34:46 16° NNE visible
24 Jun ? 01:47:18 10° NNW 01:47:51 14° NNW 01:47:51 14° NNW visible
25 Jun ? 00:28:16 10° N 00:29:37 13° NNE 00:30:16 12° NE visible
26 Jun ? 00:42:05 10° NNW 00:43:36 20° N 00:43:36 20° N visible
26 Jun ? 23:23:42 10° N 23:24:03 10° NNE 23:24:24 10° NNE visible
27 Jun ? 00:56:14 10° NW 00:57:01 17° NW 00:57:01 17° NW visible
27 Jun ? 23:36:58 10° NNW 23:38:50 16° NNE 23:39:39 15° NE visible
28 Jun ? 23:50:59 10° NNW 23:53:11 31° NNE 23:53:11 31° NNE visible
29 Jun ? 22:31:58 10° N 22:33:17 13° NNE 22:34:36 10° NE visible
